Satellite: NO-44
Catalog number: 26931
Epoch time:      11300.67909532
Element set:     882
Inclination:      067.0550 deg
RA of node:       002.1245 deg
Eccentricity:    0.0004873
Arg of perigee:   261.0863 deg
Mean anomaly:     098.9690 deg
Mean motion:   14.29702256 rev/day
Decay rate:       5.35e-06 rev/day^2
Epoch rev:           52586
Checksum:              306

Satellite: SO-50
Catalog number: 27607
Epoch time:      11300.35888515
Element set:     599
Inclination:      064.5582 deg
RA of node:       285.9979 deg
Eccentricity:    0.0082268
Arg of perigee:   293.8470 deg
Mean anomaly:     065.4010 deg
Mean motion:   14.71916198 rev/day
Decay rate:      2.307e-05 rev/day^2
Epoch rev:           47554
Checksum:              345

Satellite: CO-55
Catalog number: 27844
Epoch time:      11299.58194834
Element set:     229
Inclination:      098.7064 deg
RA of node:       306.3870 deg
Eccentricity:    0.0009695
Arg of perigee:   175.6729 deg
Mean anomaly:     184.4515 deg
Mean motion:   14.20873056 rev/day
Decay rate:       6.94e-06 rev/day^2
Epoch rev:           43157
Checksum:              352

Satellite: CO-57
Catalog number: 27848
Epoch time:      11299.54599936
Element set:     175
Inclination:      098.7118 deg
RA of node:       305.5872 deg
Eccentricity:    0.0009544
Arg of perigee:   180.5586 deg
Mean anomaly:     179.5617 deg
Mean motion:   14.20645651 rev/day
Decay rate:       6.12e-06 rev/day^2
Epoch rev:           43151
Checksum:              348

Satellite: AO-51
Catalog number: 28375
Epoch time:      11300.13080702
Element set:     105
Inclination:      098.1146 deg
RA of node:       271.7547 deg
Eccentricity:    0.0084898
Arg of perigee:   030.3227 deg
Mean anomaly:     330.2848 deg
Mean motion:   14.40805458 rev/day
Decay rate:       3.28e-06 rev/day^2
Epoch rev:           38506
Checksum:              291

Satellite: CP3
Catalog number: 31129
Epoch time:      11299.99622832
Element set:       3
Inclination:      097.8934 deg
RA of node:       316.5563 deg
Eccentricity:    0.0102431
Arg of perigee:   130.9452 deg
Mean anomaly:     230.0669 deg
Mean motion:   14.52635262 rev/day
Decay rate:      1.672e-05 rev/day^2
Epoch rev:           23997
Checksum:              305

Satellite: CO-65
Catalog number: 32785
Epoch time:      11299.72864407
Element set:     133
Inclination:      097.8358 deg
RA of node:       001.0097 deg
Eccentricity:    0.0016000
Arg of perigee:   105.9016 deg
Mean anomaly:     254.3990 deg
Mean motion:   14.82265047 rev/day
Decay rate:      2.766e-05 rev/day^2
Epoch rev:           18902
Checksum:              310

Satellite: PRISM
Catalog number: 33493
Epoch time:      11300.70569380
Element set:      92
Inclination:      098.1416 deg
RA of node:       071.4205 deg
Eccentricity:    0.0018913
Arg of perigee:   335.1324 deg
Mean anomaly:     024.8961 deg
Mean motion:   14.82257794 rev/day
Decay rate:      5.105e-05 rev/day^2
Epoch rev:           14914
Checksum:              284

Satellite: SOHLA-1
Catalog number: 33496
Epoch time:      11300.20149128
Element set:     553
Inclination:      098.0901 deg
RA of node:       048.7753 deg
Eccentricity:    0.0007629
Arg of perigee:   067.9985 deg
Mean anomaly:     292.2031 deg
Mean motion:   14.69714337 rev/day
Decay rate:       9.97e-06 rev/day^2
Epoch rev:           14787
Checksum:              326

Satellite: TISAT-1
Catalog number: 36799
Epoch time:      11300.72267090
Element set:     362
Inclination:      098.0894 deg
RA of node:       010.2136 deg
Eccentricity:    0.0014841
Arg of perigee:   205.0432 deg
Mean anomaly:     154.9981 deg
Mean motion:   14.80925005 rev/day
Decay rate:      3.115e-05 rev/day^2
Epoch rev:            6992
Checksum:              285

Satellite: STUDSAT
Catalog number: 36801
Epoch time:      11300.30150113
Element set:     265
Inclination:      098.0927 deg
RA of node:       009.7666 deg
Eccentricity:    0.0013273
Arg of perigee:   195.9717 deg
Mean anomaly:     164.1078 deg
Mean motion:   14.81561809 rev/day
Decay rate:     1.1067e-04 rev/day^2
Epoch rev:            6985
Checksum:              294

Satellite: OOREOS
Catalog number: 37224
Epoch time:      11283.12196780
Element set:    0302
Inclination:      071.9656 deg
RA of node:       145.3580 deg
Eccentricity:    0.0018647
Arg of perigee:   057.9354 deg
Mean anomaly:     302.3616 deg
Mean motion:   14.77183931 rev/day
Decay rate:       9.55e-06 rev/day^2
Epoch rev:           04784
Checksum:              307

Satellite: FO-69
Catalog number: 37227
Epoch time:      11298.39961576
Element set:    0008
Inclination:      071.9664 deg
RA of node:       112.1333 deg
Eccentricity:    0.0015927
Arg of perigee:   034.6766 deg
Mean anomaly:     325.5479 deg
Mean motion:   14.76710336 rev/day
Decay rate:      1.486e-05 rev/day^2
Epoch rev:           00128
Checksum:              326

Satellite: NANOSALD
Catalog number: 37361
Epoch time:      11242.25215765
Element set:    0351
Inclination:      071.9735 deg
RA of node:       221.4469 deg
Eccentricity:    0.0025730
Arg of perigee:   245.3422 deg
Mean anomaly:     114.7284 deg
Mean motion:   15.22200108 rev/day
Decay rate:    1.80112e-03 rev/day^2
Epoch rev:           03331
Checksum:              248

